Home   Weather   Nablus   Past weeks

Flag for Palestinian Territories Past Weather in Nablus, West Bank, Palestinian Territories — Yesterday and Last 2 Weeks

Now
63 °F

Passing clouds.


Feels Like: 63 °F
Forecast: 45 / 61 °F
Wind: 3 mph from North

Location: Ben Gurion International Airport

Current Time: Dec 3, 2016 at 5:42:23 pm

Latest Report: Dec 3, 2016 at 5:20 pm


Visibility: N/A

Pressure: 30.24 "Hg (28.40 "Hg at 534m altitude)

Humidity: 73%

Dew Point: 54 °F

Location of NablusLocation

Past Weather in Nablus — Graph

°F

Nablus Temperature Yesterday

Maximum temperature yesterday: 63 °F (at 3:50 pm)
Minimum temperature yesterday: 52 °F (at 4:20 am)
Average temperature yesterday: 56 °F

High & Low Weather Summary for the Past Weeks

 TemperatureHumidityPressure
High84 °F (Nov 20, 12:50 pm)94% (Dec 2, 12:20 am)30.30 "Hg (Dec 2, 12:20 am)
Low39 °F (Nov 26, 4:20 am)4% (Nov 24, 2:20 pm)29.74 "Hg (Dec 1, 1:50 pm)
Average66 °F33%30.00 "Hg
* Reported Nov 18 4:20 pm — Dec 3 4:20 pm, Nablus, Weather by CustomWeather, © 2016

Note: Actual official high and low records may vary slightly from our data, if they occured in-between our weather recording intervals... More about our weather records

Advertising

Nablus Weather History for the Previous 24 Hours

Scroll right to see more
 ConditionsComfort  
Time TempWeatherWind HumidityBarometerVisibility
4:20 pm
Sat, Dec 3
66 °FPassing clouds.3 mph60%30.24 "HgN/A
3:50 pm66 °FPassing clouds.2 mph56%30.24 "HgN/A
3:20 pm66 °FPassing clouds.2 mph56%30.24 "HgN/A
2:50 pm66 °FScattered clouds.3 mph56%30.24 "Hg6 mi
2:20 pm66 °FScattered clouds.1 mph56%30.24 "Hg6 mi
1:50 pm64 °FScattered clouds.3 mph60%30.24 "Hg6 mi
1:20 pm64 °FScattered clouds.5 mph60%30.24 "HgN/A
12:50 pm64 °FPartly sunny.6 mph60%30.24 "Hg6 mi
12:20 pm63 °FPartly sunny.5 mph64%30.27 "Hg6 mi
11:50 am61 °FPartly sunny.7 mph68%30.27 "Hg6 mi
11:20 am61 °FPartly sunny.6 mph68%30.30 "Hg6 mi
10:50 am61 °FPartly sunny.5 mph68%30.30 "Hg6 mi
10:20 am59 °FPartly sunny.7 mph77%30.30 "Hg5 mi
9:50 am59 °FPartly sunny.6 mph77%30.30 "Hg5 mi
9:20 am57 °FLight rain. Partly sunny.3 mph77%30.30 "Hg4 mi
8:50 am57 °FLight rain. Partly sunny.5 mph72%30.27 "Hg4 mi
8:20 am57 °FPartly sunny.5 mph77%30.24 "HgN/A
7:50 am57 °FPartly sunny.6 mph77%30.24 "HgN/A
7:20 am57 °FScattered clouds.7 mph77%30.24 "HgN/A
6:50 am57 °FPassing clouds.9 mph77%30.24 "HgN/A
6:20 am55 °FPassing clouds.9 mph82%30.24 "HgN/A
5:50 am55 °FPassing clouds.8 mph82%30.21 "HgN/A
5:20 am55 °FPassing clouds.8 mph88%30.21 "HgN/A
4:50 am55 °FPassing clouds.5 mph88%30.21 "HgN/A
4:20 am55 °FPassing clouds.7 mph88%30.18 "HgN/A
3:50 am55 °FPassing clouds.8 mph88%30.18 "HgN/A
3:20 am55 °FPassing clouds.3 mph88%30.18 "HgN/A
2:50 am55 °FPassing clouds.8 mph88%30.18 "HgN/A
2:20 am55 °FPassing clouds.9 mph88%30.18 "HgN/A
1:50 am55 °FPassing clouds.7 mph88%30.18 "HgN/A
1:20 am55 °FPassing clouds.9 mph88%30.18 "HgN/A
12:50 am55 °FPassing clouds.9 mph88%30.18 "HgN/A
12:20 am55 °FPassing clouds.8 mph88%30.18 "HgN/A
11:50 pm
Fri, Dec 2
55 °FPassing clouds.8 mph88%30.18 "HgN/A
11:20 pm55 °FPassing clouds.9 mph94%30.15 "HgN/A
10:50 pm55 °FPassing clouds.8 mph94%30.15 "HgN/A
10:20 pm57 °FPassing clouds.8 mph88%30.15 "HgN/A
9:50 pm57 °FPassing clouds.8 mph88%30.15 "HgN/A
9:20 pm57 °FPassing clouds.8 mph88%30.15 "HgN/A
8:50 pm57 °FPassing clouds.7 mph88%30.15 "HgN/A
8:20 pm57 °FPassing clouds.9 mph88%30.12 "HgN/A
7:50 pm59 °FPassing clouds.5 mph72%30.12 "HgN/A
7:20 pm61 °FPassing clouds.15 mph68%30.12 "HgN/A
6:50 pm59 °FLight rain. Passing clouds.2 mph82%30.12 "HgN/A
6:20 pm61 °FPassing clouds.6 mph68%30.09 "HgN/A
5:50 pm61 °FPassing clouds.13 mph72%30.09 "HgN/A
5:20 pm61 °FPassing clouds.9 mph68%30.07 "HgN/A
Weather by CustomWeather, © 2016

See weather overviewHow to use our weather pages